STARLINK-2715 (48697 NORAD) Tracking and Keplerian Element Data

This shows tracking and keplerian element data for the satellite.

Feedback or suggestion? Click here.




ElementValue
Catalog48697
NameSTARLINK-2715
Epoch Orbit172
Epoch Day170.58334491
Epoch Year2021
RAAN306.2325
Inclination53.0482
Eccentricity0.000143
Argument of Perigee50.3478
Mean Anonmoly87.8528
Mean Motion15.73239043
Decay Rate-6.172E-05
L11 48697U 21044BM 21170.58334491 -.00006172 00000-0 -39509-4 0 9991
L22 48697 53.0482 306.2325 0001430 50.3478 87.8528 15.73239043 1729

Live tracking and technical data element details for STARLINK-2715 (NORAD 48697). STARLINK-2715 can be tracked NOW for your location showing map with azimuth and elevation plus other details from your city location.

Track the satellite on the map from your city or location and see movement details for azimuth, elevation, latitude, longitude, range, height, and movement on the map or in text.







IsCatalogInMostPopularTable: catalog: 48697, numindb: 8
Update: records affected: 1



GetName: 48697 STARLINK-2715

Hit Count: updated at: Mon, 21 Jun 2021 03:08:34 GMT